Location: El Álamo
(40.2307°N, 3.9945°W)
Time: 04:45:28
(UTC+00:00)

CZ-4C R/B - Pass Details

Date: 19 May 2025
Orbit: 500 x 1483 km, 63.4° (Epoch: 23 June)

Event Time Altitude Azimuth Distance (km) Brightness Sun altitude
Rises 21:16:43 0° 322° (NW) 3,886 7.4 -17.2°
Reaches altitude 10° 21:19:12 10° 319° (NW) 3,054 6.4 -17.5°
Maximum altitude 21:26:37 62° 241° (WSW) 1,472 3.4 -18.5°
Enters shadow 21:32:31 23° 169° (SSE) 2,673 4.3 -19.2°
